This demonstration page uses our WeatherBlox Daily Observations layout. Learn more.

Hourly Observations for November 4, 2015

Temp ( °F °C ) Dew Point ( °F °C ) Humidity (%) Winds ( mph kmh ) Pressure ( in mb ) Visibility ( mi km ) Precip ( " mm )
12:15 am 00:15 Clear 59 15 50 10 72 72 S 13 20 29.74 1007 10 16.09344 0 0
12:35 am 00:35 Clear 57 14 50 10 77 77 S 10 17 29.74 1007 10 16.09344 0 0
12:55 am 00:55 Clear 59 15 50 10 72 72 S 12 19 29.74 1007 10 16.09344 0 0
1:15 am 01:15 Clear 57 14 50 10 77 77 S 10 17 29.74 1007 10 16.09344 0 0
1:35 am 01:35 Clear 57 14 50 10 77 77 S 10 17 29.74 1007 10 16.09344 0 0
1:55 am 01:55 Clear 57 14 50 10 77 77 S 12 19 29.74 1007 10 16.09344 0 0
2:15 am 02:15 Clear 57 14 50 10 77 77 S 12 19 29.74 1007 10 16.09344 0 0
2:35 am 02:35 Clear 55 13 52 11 88 88 S 9 15 29.77 1008 10 16.09344 0 0
2:55 am 02:55 Clear 55 13 52 11 88 88 S 8 13 29.77 1008 10 16.09344 0 0
3:15 am 03:15 Clear 54 12 50 10 88 88 S 6 9 29.77 1008 10 16.09344 0 0
3:35 am 03:35 Clear 54 12 50 10 88 88 S 7 11 29.77 1008 10 16.09344 0 0
3:55 am 03:55 Clear 54 12 50 10 88 88 SSE 8 13 29.77 1008 10 16.09344 0 0
4:15 am 04:15 Clear 54 12 52 11 94 94 S 8 13 29.77 1008 10 16.09344 0 0
4:35 am 04:35 Clear 54 12 52 11 94 94 S 8 13 29.77 1008 10 16.09344 0 0
4:55 am 04:55 Clear 54 12 52 11 94 94 S 7 11 29.77 1008 10 16.09344 0 0
5:15 am 05:15 Clear 54 12 50 10 88 88 SSE 6 9 29.77 1008 10 16.09344 0 0
5:35 am 05:35 Clear 54 12 52 11 94 94 SSE 7 11 29.77 1008 10 16.09344 0 0
5:55 am 05:55 Clear 54 12 52 11 94 94 SSE 9 15 29.77 1008 10 16.09344 0 0
6:15 am 06:15 Clear 54 12 50 10 88 88 SSE 10 17 29.77 1008 10 16.09344 0 0
6:35 am 06:35 Clear 54 12 52 11 94 94 S 9 15 29.77 1008 10 16.09344 0 0
6:55 am 06:55 Clear 52 11 50 10 94 94 S 8 13 29.77 1008 10 16.09344 0 0
7:15 am 07:15 Sunny 54 12 52 11 94 94 S 12 19 29.77 1008 10 16.09344 0 0
7:35 am 07:35 Sunny 54 12 52 11 94 94 S 10 17 29.77 1008 7 11.265408 0 0
7:55 am 07:55 Sunny 54 12 52 11 94 94 S 10 17 29.77 1008 7 11.265408 0 0
8:15 am 08:15 Sunny 55 13 54 12 94 94 S 10 17 29.77 1008 10 16.09344 0 0
8:35 am 08:35 Partly Cloudy 55 13 54 12 94 94 S 12 19 29.77 1008 10 16.09344 0 0
8:55 am 08:55 Sunny 57 14 54 12 88 88 S 14 22 29.74 1007 10 16.09344 0 0
9:15 am 09:15 Mostly Cloudy 57 14 55 13 94 94 S 16 26 29.74 1007 10 16.09344 0 0
9:35 am 09:35 Mostly Cloudy 59 15 55 13 88 88 S 17 28 29.74 1007 10 16.09344 0 0
9:55 am 09:55 Partly Cloudy 61 16 54 12 77 77 S 22 35 29.74 1007 10 16.09344 0 0
10:15 am 10:15 Sunny 61 16 54 12 77 77 S 22 35 29.74 1007 10 16.09344 0 0
10:35 am 10:35 Sunny 63 17 54 12 73 73 S 24 39 29.74 1007 10 16.09344 0 0
10:55 am 10:55 Sunny 64 18 54 12 68 68 S 22 35 29.71 1006 10 16.09344 0 0
11:15 am 11:15 Sunny 66 19 54 12 64 64 S 20 31 29.71 1006 10 16.09344 0 0
11:35 am 11:35 Sunny 66 19 54 12 64 64 S 21 33 29.71 1006 10 16.09344 0 0
11:55 am 11:55 Sunny 68 20 54 12 60 60 S 22 35 29.71 1006 10 16.09344 0 0
12:15 pm 12:15 Sunny 70 21 54 12 57 57 S 20 31 29.68 1005 10 16.09344 0 0
12:35 pm 12:35 Sunny 70 21 54 12 57 57 S 17 28 29.68 1005 10 16.09344 0 0
12:55 pm 12:55 Sunny 70 21 54 12 57 57 S 21 33 29.68 1005 10 16.09344 0 0
1:15 pm 13:15 Sunny 72 22 54 12 53 53 S 20 31 29.65 1004 10 16.09344 0 0
1:35 pm 13:35 Sunny 72 22 54 12 53 53 S 22 35 29.65 1004 10 16.09344 0 0
1:55 pm 13:55 Sunny 72 22 54 12 53 53 S 26 43 29.65 1004 10 16.09344 0 0
2:15 pm 14:15 Sunny 72 22 54 12 53 53 S 21 33 29.65 1004 10 16.09344 0 0
2:35 pm 14:35 Sunny 72 22 54 12 53 53 S 24 39 29.65 1004 10 16.09344 0 0
2:55 pm 14:55 Sunny 72 22 52 11 50 50 S 20 31 29.65 1004 10 16.09344 0 0
3:15 pm 15:15 Sunny 72 22 54 12 53 53 S 18 30 29.65 1004 10 16.09344 0 0
3:35 pm 15:35 Sunny 72 22 54 12 53 53 SSE 22 35 29.65 1004 10 16.09344 0 0
3:55 pm 15:55 Sunny 72 22 54 12 53 53 S 24 39 29.65 1004 10 16.09344 0 0
4:15 pm 16:15 Sunny 70 21 54 12 57 57 S 22 35 29.65 1004 10 16.09344 0 0
4:35 pm 16:35 Sunny 68 20 54 12 60 60 S 24 39 29.68 1005 10 16.09344 0 0
4:55 pm 16:55 Sunny 68 20 54 12 60 60 S 20 31 29.68 1005 10 16.09344 0 0
5:15 pm 17:15 Sunny 66 19 54 12 64 64 SSE 17 28 29.68 1005 10 16.09344 0 0
5:35 pm 17:35 Clear 66 19 54 12 64 64 S 22 35 29.65 1004 10 16.09344 0 0
5:55 pm 17:55 Clear 66 19 54 12 64 64 SSE 20 31 29.65 1004 10 16.09344 0 0
6:15 pm 18:15 Clear 64 18 55 13 73 73 SSE 20 31 29.65 1004 10 16.09344 0 0
6:35 pm 18:35 Clear 64 18 55 13 73 73 SSE 18 30 29.65 1004 10 16.09344 0 0
6:55 pm 18:55 Clear 64 18 55 13 73 73 S 20 31 29.65 1004 10 16.09344 0 0
7:15 pm 19:15 Mostly Cloudy 64 18 55 13 73 73 S 14 22 29.68 1005 10 16.09344 0 0
7:35 pm 19:35 Cloudy 64 18 55 13 73 73 S 17 28 29.68 1005 10 16.09344 0 0
7:55 pm 19:55 Cloudy 64 18 54 12 68 68 S 23 37 29.68 1005 10 16.09344 0 0
8:15 pm 20:15 Cloudy 64 18 54 12 68 68 S 25 41 29.65 1004 10 16.09344 0 0
8:35 pm 20:35 Cloudy 64 18 54 12 68 68 S 22 35 29.65 1004 10 16.09344 0 0
8:55 pm 20:55 Cloudy 64 18 54 12 68 68 S 29 46 29.65 1004 10 16.09344 0 0
9:15 pm 21:15 Cloudy 63 17 54 12 73 73 S 25 41 29.65 1004 10 16.09344 0 0
9:35 pm 21:35 Cloudy 63 17 54 12 73 73 S 28 44 29.65 1004 10 16.09344 0 0
9:55 pm 21:55 Mostly Cloudy 63 17 55 13 77 77 S 24 39 29.65 1004 10 16.09344 0 0
10:15 pm 22:15 Partly Cloudy 63 17 55 13 77 77 S 30 48 29.65 1004 10 16.09344 0 0
10:35 pm 22:35 Partly Cloudy 63 17 55 13 77 77 S 29 46 29.65 1004 10 16.09344 0 0
10:55 pm 22:55 Mostly Cloudy with Rain 61 16 55 13 83 83 SSW 25 41 29.71 1006 5 8.04672 0.01 0.254
11:15 pm 23:15 Cloudy 61 16 55 13 83 83 SSW 30 48 29.71 1006 10 16.09344 0.01 0.254
11:35 pm 23:35 Cloudy with Light Rain 59 15 57 14 94 94 S 17 28 29.68 1005 7 11.265408 0.03 0.762
11:55 pm 23:55 Partly Cloudy 59 15 55 13 88 88 S 15 24 29.68 1005 10 16.09344 0.03 0.762

Powered by AerisWeather